Dublin, Ireland

7:09 AM GMT on December 17, 2017 (GMT +0000)
Dublin International

Weather History for EIDW - December, 2012

Change the Weather History Date:

Thursday, December 6, 2012

  Actual Average Record
Temperature  
Mean Temperature 37 °F -  
Max Temperature 43 °F 47 °F 59 °F (2007)
Min Temperature 31 °F 38 °F 19 °F (2010)
Degree Days  
Heating Degree Days 28    
Moisture  
Dew Point 35 °F    
Average Humidity 90    
Maximum Humidity 100    
Minimum Humidity 72    
Precipitation  
Precipitation 0.24 in 0.10 in - ()
Sea Level Pressure  
Sea Level Pressure 29.72 in    
Wind  
Wind Speed 13 mph ()    
Max Wind Speed 27 mph    
Max Gust Speed 39 mph    
Visibility 6.8 miles    
Events Rain    
Averages and records for this station are not official NWS values.
T = Trace of Precipitation, MM = Missing Value Source: Averaged Metar Reports

Daily Weather History Graph

Daily Weather History Graph

Search for Another Location

Airport or City:

Trip Planner

Search our weather history database for the weather conditions in past years. The results will help you decide how hot, cold, wet, or windy it might be!

Date:

Astronomy

Dec. 06, 2012 Rise Set
Actual Time 8:25 AM GMT 4:07 PM GMT
Civil Twilight 7:42 AM GMT 4:49 PM GMT
Nautical Twilight 6:58 AM GMT 5:34 PM GMT
Astronomical Twilight 6:15 AM GMT 6:16 PM GMT
Moon No Moon Rise 12:22 PM GMT (12/6)
Length of Visible Light 9h 06m
Length of Day
7h 42m
Waning Gibbous, 52% of the Moon is Illuminated
Dec 6
Waning Gibbous
Dec 6
Last Quarter
Dec 13
New
Dec 20
First Quarter
Dec 28
Full

Hourly Weather History & Observations

Time (GMT) Temp. Windchill Dew Point Humidity Pressure Visibility Wind Dir Wind Speed Gust Speed Precip Events Conditions
12:00 AM 33 °F - 32 °F 94% 30.04 in 19 mi SW 6.7 mph - -   Scattered Clouds
12:00 AM 32.0 °F 25.6 °F 32.0 °F 100% 30.01 in 6.2 mi SW 6.9 mph - N/A   Scattered Clouds
12:30 AM 33.8 °F 29.6 °F 32.0 °F 93% 30.01 in 6.2 mi SW 4.6 mph - N/A   Scattered Clouds
1:00 AM 32.0 °F 25.6 °F 32.0 °F 100% 30.01 in 6.2 mi SW 6.9 mph - N/A   Mostly Cloudy
1:30 AM 33.8 °F 27.0 °F 32.0 °F 93% 30.01 in - SW 8.1 mph - N/A   Clear
2:00 AM 33.8 °F 27.7 °F 32.0 °F 93% 30.01 in - SW 6.9 mph - N/A   Clear
2:30 AM 33.8 °F 26.4 °F 32.0 °F 93% 29.98 in - SSW 9.2 mph - N/A   Clear
3:00 AM 33.8 °F 27.0 °F 32.0 °F 93% 29.98 in - SSW 8.1 mph - N/A   Clear
3:30 AM 33.8 °F 27.7 °F 32.0 °F 93% 29.95 in - SSW 6.9 mph - N/A   Clear
4:00 AM 33.8 °F 27.0 °F 32.0 °F 93% 29.95 in - South 8.1 mph - N/A   Clear
4:30 AM 35.6 °F 29.9 °F 32.0 °F 87% 29.95 in - South 6.9 mph - N/A   Clear
5:00 AM 35.6 °F 29.9 °F 32.0 °F 87% 29.92 in - South 6.9 mph - N/A   Clear
5:30 AM 35.6 °F 28.6 °F 32.0 °F 87% 29.89 in - South 9.2 mph - N/A   Clear
6:00 AM 37 °F - 31 °F 72% 29.92 in 19 mi SSW 13.4 mph - -   Scattered Clouds
6:00 AM 37.4 °F 29.3 °F 32.0 °F 81% 29.89 in - SSW 12.7 mph - N/A   Clear
6:30 AM 37.4 °F 28.5 °F 32.0 °F 81% 29.89 in - SW 15.0 mph - N/A   Clear
7:00 AM 39.2 °F 31.2 °F 33.8 °F 81% 29.89 in 6.2 mi SW 13.8 mph - N/A Rain Light Rain
7:30 AM 39.2 °F 30.5 °F 33.8 °F 81% 29.86 in 6.2 mi SW 16.1 mph - N/A   Mostly Cloudy
8:00 AM 37.4 °F 28.2 °F 33.8 °F 87% 29.86 in 6.2 mi SW 16.1 mph - N/A Rain Light Rain
8:30 AM 37.4 °F 28.2 °F 33.8 °F 87% 29.83 in 6.2 mi SW 16.1 mph - N/A Rain Light Rain
9:00 AM 37.4 °F 27.2 °F 35.6 °F 93% 29.83 in 6.2 mi SW 19.6 mph 31.1 mph N/A Rain Light Rain
9:30 AM 39.2 °F 29.6 °F 35.6 °F 87% 29.80 in 6.2 mi SSW 19.6 mph - N/A Rain Light Rain
10:00 AM 39.2 °F 28.7 °F 35.6 °F 87% 29.77 in 6.2 mi SW 23.0 mph 34.5 mph N/A Rain Light Rain
10:30 AM 39.2 °F 28.5 °F 35.6 °F 87% 29.77 in 6.2 mi SW 24.2 mph - N/A Rain Light Rain
11:00 AM 39.2 °F 29.3 °F 37.4 °F 93% 29.74 in 6.2 mi SW 20.7 mph 32.2 mph N/A Rain Light Rain
11:30 AM 39.2 °F 29.8 °F 37.4 °F 93% 29.71 in 6.2 mi SW 18.4 mph - N/A Rain Light Rain
12:00 PM 40 °F - 37 °F 86% 29.72 in 12 mi SW 20.1 mph - - Rain Light Rain
12:00 PM 39.2 °F 29.6 °F 37.4 °F 93% 29.68 in 6.2 mi SW 19.6 mph 32.2 mph N/A Rain Light Rain
12:30 PM 39.2 °F 29.3 °F 37.4 °F 93% 29.68 in 6.2 mi SW 20.7 mph 32.2 mph N/A Rain Light Rain
1:00 PM 39.2 °F 29.0 °F 37.4 °F 93% 29.62 in 6.2 mi SW 21.9 mph - N/A Rain Light Rain
1:30 PM 41.0 °F 31.6 °F 37.4 °F 87% 29.62 in 6.2 mi SW 20.7 mph 34.5 mph N/A Rain Light Rain
2:00 PM 41.0 °F 31.6 °F 39.2 °F 93% 29.59 in 6.2 mi SW 20.7 mph 34.5 mph N/A Rain Light Rain
2:30 PM 41.0 °F 31.4 °F 39.2 °F 93% 29.56 in 6.2 mi SW 21.9 mph 35.7 mph N/A Rain Light Rain
3:00 PM 41.0 °F 31.4 °F 39.2 °F 93% 29.53 in 6.2 mi SW 21.9 mph 35.7 mph N/A Rain Light Rain
3:30 PM 41.0 °F 31.6 °F 39.2 °F 93% 29.53 in 5.6 mi SW 20.7 mph 32.2 mph N/A Rain Light Rain
4:00 PM 42.8 °F 34.5 °F 41.0 °F 93% 29.50 in 5.0 mi SW 18.4 mph - N/A Rain Light Rain
4:30 PM 42.8 °F 34.3 °F 41.0 °F 93% 29.47 in 4.3 mi SW 19.6 mph - N/A Rain Light Rain
5:00 PM 42.8 °F 34.5 °F 41.0 °F 93% 29.47 in 6.2 mi WSW 18.4 mph - N/A Rain Light Rain
5:30 PM 42.8 °F 34.3 °F 41.0 °F 93% 29.44 in 6.2 mi WSW 19.6 mph 31.1 mph N/A Rain Light Rain
6:00 PM 42 °F - 39 °F 83% 29.49 in 6 mi West 26.8 mph - - Rain Light Rain
6:00 PM 42.8 °F 32.9 °F 39.2 °F 87% 29.47 in 5.6 mi West 26.5 mph 39.1 mph N/A Rain Light Rain
6:30 PM 41.0 °F 32.2 °F 37.4 °F 87% 29.47 in 6.2 mi West 18.4 mph - N/A   Mostly Cloudy
7:00 PM 41.0 °F 31.6 °F 37.4 °F 87% 29.50 in 6.2 mi West 20.7 mph - N/A Rain Light Rain
7:30 PM 39.2 °F 29.0 °F 37.4 °F 93% 29.50 in 6.2 mi West 21.9 mph - N/A   Mostly Cloudy
8:00 PM 39.2 °F 29.6 °F 35.6 °F 87% 29.50 in 6.2 mi West 19.6 mph - N/A   Mostly Cloudy
8:30 PM 37.4 °F 26.9 °F 35.6 °F 93% 29.50 in 5.6 mi West 20.7 mph - N/A Rain Light Rain
9:00 PM 37.4 °F 27.5 °F 35.6 °F 93% 29.50 in 6.2 mi West 18.4 mph - N/A   Mostly Cloudy
9:30 PM 37.4 °F 28.2 °F 33.8 °F 87% 29.50 in 6.2 mi West 16.1 mph - N/A   Partly Cloudy
10:00 PM 35.6 °F 24.5 °F 33.8 °F 93% 29.53 in 6.2 mi West 20.7 mph - N/A   Partly Cloudy
10:30 PM 35.6 °F 24.8 °F 33.8 °F 93% 29.53 in 6.2 mi West 19.6 mph - N/A   Partly Cloudy
11:00 PM 35.6 °F 25.5 °F 33.8 °F 93% 29.53 in 6.2 mi West 17.3 mph - N/A   Partly Cloudy
11:30 PM 37.4 °F 27.8 °F 33.8 °F 87% 29.53 in 6.2 mi West 17.3 mph - N/A   Mostly Cloudy